#timestamp,LO_Frequency,Hit,StdDev 
1542182415.1,286046999.4,P
1542182416.0,286046999.4,N
1542182435.8,286046998.7,N
1542182455.7,286047011.9,Y
1542182475.5,286047000.3,P
1542182495.3,286047000.4,N
1542182515.2,286047000.5,N
1542182535.0,286047000.1,N
1542182535.9,286047000.1,N
1542182555.8,286047002.7,Y
1542182575.6,286047002.6,P
1542182595.5,286047000.2,N
1542182615.3,286047002.7,N
1542182635.1,286047000.0,N
1542182655.9,286047000.1,N
1542182675.7,286047000.3,N
1542182695.5,286047002.4,N
1542182715.4,286047002.4,N
1542182735.2,286047002.8,N
1542182755.1,286047002.8,N
1542182756.0,286047002.8,N
1542182775.8,286047000.2,N
1542182795.6,286047000.1,N
1542182815.5,286047000.0,N
1542182835.3,286047000.1,N
1542182855.1,286047001.0,N
1542182875.9,286046998.1,N
1542182895.7,286046998.3,N
1542182915.6,286046998.3,N
1542182935.4,286047000.4,N
1542182955.2,286046999.7,N
1542182975.1,286047002.8,N
1542182976.0,286047002.8,N
1542182995.8,286046999.7,N
1542183015.6,286047000.5,N
1542183035.5,286047001.1,N
1542183055.3,286047000.6,N
1542183075.2,286046999.8,N
1542183095.9,286047000.5,N
1542183115.7,286046999.7,N
1542183135.6,286047000.3,N
1542183155.4,286047000.0,N
1542183175.2,286047000.1,N
1542183195.1,286047002.6,N
1542183196.0,286047002.6,N
1542183215.8,286046999.7,N
1542183235.7,286046999.7,N
1542183255.5,286046999.9,N
1542183275.3,286047000.1,N
1542183295.2,286046999.9,N
1542183315.0,286046998.1,N
1542183315.9,286046998.1,N
1542183335.7,286047000.2,N
1542183355.6,286047002.6,N
1542183375.4,286047002.6,N
1542183395.3,286047011.9,Y
1542183415.1,286047002.5,P
1542183416.0,286047002.5,N
1542183435.8,286046999.7,N
1542183455.7,286047001.0,N
1542183475.5,286047002.7,N
1542183495.3,286047000.0,N
1542183515.2,286047002.8,N
1542183535.0,286047001.9,N
1542183535.9,286047001.9,N
1542183555.8,286047002.5,N
1542183575.6,286047000.3,N
1542183595.4,286047000.7,N
1542183615.3,286047000.7,N
1542183635.1,286047000.4,N
1542183655.8,286047000.8,N
1542183675.7,286047000.7,N
1542183695.9,286047001.0,N
1542183715.7,286047000.1,N
1542183735.5,286047000.2,N
1542183755.4,286047001.0,N
1542183775.2,286047000.8,N
1542183795.1,286047002.5,N
1542183796.0,286047002.5,N
1542183815.8,286047000.2,N
1542183835.6,286047000.4,N
1542183855.5,286047000.2,N
1542183875.3,286047000.4,N
1542183895.2,286047002.1,N
1542183915.9,286047001.8,N
1542183935.7,286047001.9,N
1542183955.6,286046999.8,N
1542183975.4,286047002.1,N
1542183995.3,286047002.4,N
1542184015.1,286047000.4,N
1542184035.8,286047000.6,N
1542184055.7,286046998.4,N
1542184075.5,286047000.9,N
1542184095.4,286047000.4,N
1542184115.2,286047001.0,N
1542184135.0,286047000.5,N
1542184166.0,286047000.2,E
1542184175.9,286047000.3,N
1542184195.7,286047000.5,P
1542184215.6,286047002.6,P
1542184235.4,286047002.7,N
1542184255.2,286047002.8,N
1542184275.1,286047002.3,N
1542184276.0,286047002.3,N
1542184295.8,286046999.7,N
1542184315.6,286047000.2,N
1542184335.5,286047000.6,N
1542184355.3,286047000.6,N
1542184375.2,286046999.8,N
1542184395.9,286047002.1,N
1542184415.7,286047002.7,N
1542184435.6,286047001.6,N
1542184455.4,286046999.7,N
1542184475.2,286047000.0,N
1542184495.1,286047002.1,N
1542184496.0,286047002.1,N
1542184515.8,286047002.2,N
1542184535.7,286047000.2,N
1542184555.5,286047002.2,N
1542184575.3,286047002.7,N
1542184595.2,286047002.8,N
1542184615.0,286046999.9,N
1542184615.9,286046999.9,N
1542184635.7,286046999.9,N
1542184655.6,286047002.3,N
1542184675.4,286047000.9,N
1542184695.3,286047001.2,N
1542184715.1,286047000.3,N
1542184716.0,286047000.3,N
1542184735.8,286047001.0,N
1542184755.7,286047000.5,N
1542184775.5,286047000.0,N
1542184795.3,286047000.8,N
1542184815.2,286047000.3,N
1542184835.0,286046999.8,N
1542184835.9,286046999.8,N
1542184855.8,286046999.8,N
1542184875.6,286047001.0,N
1542184895.4,286047000.9,N
1542184915.3,286047001.0,N
1542184935.1,286047000.6,N
1542184955.9,286047000.3,N
1542184975.7,286046999.9,N
1542184995.5,286047002.3,N
1542185015.4,286047002.5,N
1542185035.2,286047002.7,N
1542185055.0,286047001.8,N
1542185075.4,286047002.5,N
1542185095.3,286047000.4,N
1542185115.1,286047000.9,N
1542185135.8,286047000.6,N
1542185155.7,286047002.6,N
1542185175.5,286047001.9,N
1542185195.4,286047002.6,N
1542185215.2,286047001.2,N
1542185235.0,286046998.5,N
1542185235.9,286046998.5,N
1542185255.8,286046998.6,N
1542185275.7,286046998.5,N
1542185295.5,286046998.6,N
1542185315.3,286046999.3,N
1542185335.2,286046999.2,N
1542185355.0,286046997.9,N
1542185355.9,286046997.9,N
1542185375.8,286046996.5,N
1542185395.6,286046997.7,N
1542185415.4,286046997.6,N
1542185435.3,286046995.3,N
1542185455.1,286046995.3,N
1542185475.8,286046995.5,N
1542185495.7,286046998.0,N
1542185515.5,286046995.4,N
1542185535.4,286046995.4,N
1542185555.2,286046995.0,N
1542185575.0,286046994.6,N
1542185575.9,286046994.6,N
1542185595.8,286046994.1,N
1542185615.6,286046994.2,N
1542185635.4,286046994.3,N
1542185655.3,286046994.3,N
1542185675.1,286046992.3,Y
1542185695.9,286046995.2,P
1542185715.7,286046995.3,P
1542185735.5,286046993.4,P
1542185755.4,286046996.3,N
1542185775.2,286046993.9,Y
1542185795.1,286046999.6,P
1542185796.0,286046999.6,N
1542185815.8,286046999.0,N
1542185835.6,286046999.0,N
1542185855.5,286046999.6,N
1542185875.3,286046999.0,N
1542185895.1,286046998.8,N
1542185915.9,286046998.4,N
1542185935.7,286046999.0,N
1542185955.6,286046998.9,N
1542185975.4,286046998.7,N
1542185995.2,286046997.1,N
